Other Surface Observations
Issued by NWS

Current Version | Previous Version | Text Only | Print | Product List | Glossary On
Versions: 1 2 3 4 5 6 7 8 9 10 11 12 13 14 15 16 17 18 19 20 21 22 23 24 25 26 27 28 29 30 31 32 33 34 35 36 37 38 39 40 41 42 43 44 45 46 47 48 49 50
406
SXUS52 KTAE 250218
OSOTAE
OSOTAE
North Florida/South Alabama/Southwest Georgia Weather Roundup
National Weather Service Tallahassee Florida
1000 PM EDT SUN JUL 24 2016

Note: "fair" indicates few or no clouds below 12,000 feet with no
significant weather and/or obstructions to visibility.

!FLZ017-115-028-034-025-250300
...North Florida...

CITY           SKY/WX    TMP DP  RH WIND       PRES   REMARKS
TALLAHASSEE    PTCLDY    83  75  77 CALM      30.01R HX  90
APALACHICOLA   PTCLDY    84  77  79 S9        30.00R HX  94
PERRY          CLEAR     82  75  80 CALM      30.04R
CROSS CITY       N/A     79  73  82 CALM      30.03S
JACKSONVILLE   PTCLDY    82  72  71 SE10      30.04R
$$

!FLZ112-006-005-002-011-250300
...Florida Panhandle...

CITY           SKY/WX    TMP DP  RH WIND       PRES   REMARKS
MARIANNA       CLEAR     82  77  84 SW3       30.00R HX  90
BONIFAY        FAIR      84  76  76 CALM      30.02R HX  93
PANAMA CITY NW FAIR      81  75  82 E5        30.00R
TYNDALL AFB    CLEAR     80  74  82 E6        30.01R
TYND DRONE APT NOT AVBL
DE FUNIAK SPR  FAIR      77  75  93 CALM      30.02R
EGLIN AFB      MOCLDY    84  74  72 SE6       30.00R HX  91
DESTIN         PTCLDY    87  78  74 SE9       29.99R HX 100
HURLBURT       PTCLDY    85  74  70 SE6       29.98R HX  92
CRESTVIEW      CLEAR     77  74  90 CALM      30.02S
PENSACOLA      PTCLDY    85  73  67 SE6       29.99R HX  91
$$

!ALZ063-066-250300
...South Alabama...

CITY           SKY/WX    TMP DP  RH WIND       PRES   REMARKS
DOTHAN         CLEAR     82  74  76 SW8       30.06R
OZARK CAIRNS   CLEAR     80  74  81 S5        30.01R
FT RUCKER HELI CLEAR     81  73  76 CALM      30.01R
RUCKER HELI 3  FAIR      82  72  72 SW7       30.03R
RUCKER HELI 2  FAIR      82  73  74 SW3       30.01R
FLORALA APT    CLEAR     78  72  81 CALM      30.03R
ANDALUSIA        N/A     82  73  74 CALM      30.01R
TROY           PTCLDY    81  74  79 SW6       30.03R
EUFALA         FAIR      78  74  87 CALM      30.01R
MOBILE         CLOUDY    81  73  76 SE5       30.00R
$$

!GAZ120>161-250300
...Southwest and South Central Georgia...

CITY           SKY/WX    TMP DP  RH WIND       PRES   REMARKS
THOMASVILLE      N/A     81  77  89 CALM      30.04R
BAINBRIDGE     CLEAR     82  72  69 CALM      30.02R
MOODY AFB      CLOUDY    76  73  91 S3        30.05R
VALDOSTA       CLOUDY    80  73  79 SE6       30.04R
MOULTRIE       PTCLDY    82  73  74 E9        30.06R THUNDER
BLAKELY        CLEAR     82  73  74 CALM      30.02R
ALBANY         CLEAR     85  70  60 CALM      30.03R
TIFTON         FAIR      76  75  95 SW3         N/A
FITZGERALD     MOCLDY    87  75  66 S6        30.06R HX  96
CORDELE        FAIR      84  72  66 CALM      30.03R HX  90
AMERICUS       FAIR      79  68  69 CALM      30.05R
HOMERVILLE     FAIR      79  72  78 CALM      30.05R
$$

!GMZ750-755-770-775-250300
...Coastal and Buoy Obs...

STATION/POSITION TIME  TEMP    WIND        PRES    VSBY  WAVE
                       AIR SEA DIR/SP/G                  HT/PER
                 (UTC) (F)     (DEG/KT/KT) (MB)    (MI)  (FT/S)
KEATON BEACH     0200   85     210/  6/  9 1016.6R
CEDAR KEY        0200   83     180/ 11/ 13 1017.2R
C TOWER          0200   83     190/ 13/ 14 1016.5R
APALACHICOLA BUO 0150   83 87  210/ 12/ 14 1016.2R         2/ 5
PANAMA CITY BUOY 0150   83 88  190/ 12/ 14 1015.7R         2/ 4
MOBILE BUOY      0200   85 88  140/  4/  6 1014.4F
ORANGE BCH AL BU 0150   85 89  160/ 10/ 12 1015.1R         2/ 3
$$




USA.gov is the U.S. government's official web portal to all federal, state and local government web resources and services.